SCP
-0 -0 -0 -0 -0 -0 -0 -0 -0 -0 0 -0 -0 -0 -0 0 0 0 0 0 0 0 0 0 0 0 0 0 0 0 0 0 0 0 0 0 0 0 0 0 0 0 0 0 0
0 0 -0 -0 -0 -0 -0 -0 -0 0 0 0 0 -0 -0 0 0 0 0 0 0 0 0 0 0 0 0 0 0 0 0 0 0 0 0 0 0 0 0 0 0 0 0 0 0
0 0 0 -0 -0 -0 -0 -0 -0 0 0 0 0 0 0 0 0 0 0 0 0 0 0 0 0 0 0 0 0 0 0 0 0 0 0 0 0 0 0 0 0 0 0 0 0
0 -0 -0 -0 -0 -0 -0 -0 -0 -0 0 0 0 0 0 0 0 0 0 0 0 0 0 0 0 0 0 0 0 0 0 0 0 0 0 0 -0 0 0 0 0 0 0 0 0
-0 -0 -0 -0 -0 -0 -0 -0 -0 -0 -0 0 0 0 0 0 0 0 0 0 0 0 0 0 0 0 0 0 0 0 0 0 0 0 0 0 0 0 0 0 0 0 0 0 0
-0 -0 -0 -0 -0 -0 -0 0 0 -0 0 -0 -0 -0 0 0 0 0 0 0 0 0 0 0 0 0 0 0 0 0 0 0 0 0 0 0 0 0 0 0 0 0 0 0 0
-0 -0 -0 -0 -0 -0 -0 -0 -0 0 0 -0 -0 -0 -0 -0 0 0 0 0 0 0 0 0 0 0 0 0 0 0 0 0 0 0 0 0 0 0 0 0 0 0 0 0 0
-0 -0 -0 -0 -0 -0 -0 -0 0 -0 0 0 -0 -0 -0 0 0 0 0 0 0 0 0 0 0 0 -0 0 0 0 0 0 0 0 0 0 0 0 0 0 0 0 0 0 0
-0 -0 -0 -0 -0 -0 0 -0 0 0 -0 -0 0 0 -0 0 0 0 0 0 0 0 0 0 0 0 0 -0 0 0 0 0 0 0 0 0 0 0 0 0 0 0 0 0 0
0 0 0 -0 -0 -0 -0 -0 0 0 -0 0 -0 0 0 0 0 0 0 0 0 0 0 0 0 0 0 0 0 0 0 0 0 0 0 0 0 0 0 0 0 0 0 0 0
0 0 0 0 0 -0 0 0 0 0 -0 -0 -0 -0 0 0 0 0 0 0 0 0 0 0 0 0 0 0 0 0 -0 0 0 0 0 0 0 0 0 0 0 0 0 0 0
0 0 0 0 0 0 -0 0 0 0 0 -0 -0 0 0 0 0 0 0 0 0 0 0 0 0 0 0 0 0 0 0 0 -0 0 0 0 0 0 0 0 0 0 0 0 0
0 0 0 0 0 0 -0 0 -0 -0 0 0 0 0 0 0 0 0 0 0 0 0 0 0 0 0 0 0 0 0 0 0 0 0 -0 -0 -0 0 0 0 0 0 0 0 0
0 0 0 0 0 0 0 -0 0 0 0 0 -0 0 0 0 0 0 0 0 0 0 0 0 0 0 -0 0 0 0 0 0 0 0 0 0 -0 0 0 0 0 0 0 0 0
0 0 0 0 0 0 0 0 0 0 0 0 0 0 0 0 0 0 0 0 0 0 0 0 0 0 0 0 0 0 0 0 0 0 0 0 0 -0 -0 0 -0 0 0 0 0
0 0 0 0 0 0 0 0 0 0 0 0 0 0 0 0 0 0 0 0 0 0 0 0 0 0 0 0 0 0 0 0 0 0 0 0 0 -0 -0 -0 0 0 0 0 0
0 0 0 0 0 0 0 0 0 0 0 0 0 0 0 0 0 0 0 0 0 0 0 0 0 0 0 0 0 0 0 -0 0 0 -0 0 0 0 0 0 0 0 0 0 0
0 0 0 0 0 0 0 0 0 0 0 0 0 0 0 0 0 0 0 0 0 0 0 0 0 0 0 0 0 0 0 0 0 0 0 0 0 0 0 0 0 0 0 0 0
0 0 0 0 0 0 0 0 0 0 0 0 0 0 0 0 0 0 0 0 0 0 0 0 0 0 0 0 0 0 0 0 0 -0 -0 0 0 0 0 0 0 0 0 0 0
0 0 0 0 0 0 0 0 0 0 0 0 0 0 0 0 0 0 0 0 0 0 0 0 0 0 0 0 0 0 0 0 0 0 0 0 0 0 0 0 0 0 0 0 0
0 0 0 0 0 0 0 0 0 0 0 0 0 0 0 0 0 0 0 0 0 0 0 0 0 0 0 0 0 0 0 0 0 0 0 -0 0 0 0 -0 0 0 0 0 0
0 0 0 0 0 0 0 0 0 0 0 0 0 0 0 0 0 0 0 0 0 0 0 0 0 0 0 0 0 0 0 0 0 0 0 0 0 0 0 -0 -0 0 0 0 0
0 0 0 0 0 0 0 0 0 0 0 0 0 0 0 0 0 0 0 0 0 0 0 0 0 0 0 0 0 0 0 0 0 0 0 0 -0 0 0 -0 -0 -0 -0 -0 -0
0 0 0 0 0 0 0 0 0 0 0 0 0 0 0 0 0 0 0 0 0 0 0 0 0 0 0 0 0 0 0 0 0 0 0 -0 0 -0 -0 0 -0 -0 -0 0 0
0 0 0 0 0 0 0 0 0 0 0 0 0 0 0 0 0 0 0 0 0 0 0 0 0 0 0 0 0 0 0 0 0 0 0 -0 0 -0 -0 0 0 0 0 0 0
0 0 0 0 0 0 0 0 0 0 0 0 0 0 0 0 0 0 0 0 0 0 0 0 0 0 0 0 0 0 0 0 0 0 0 0 -0 -0 -0 0 0 0 0 0 0
0 0 0 0 0 0 0 0 0 0 0 0 0 0 0 0 0 0 0 0 0 0 0 0 0 0 0 0 0 0 0 0 0 0 0 0 0 0 0 0 0 0 0 0 0
Wind_Speed_500mb
39 38 39 40 41 39 40 39 39 41 42 41 37 32 28 25 10 21 37 46 47 45 41 30 19 11 10 17 27 12 4 11 15 14 26 48 12 13 17 9 2 6 15 14 51
35 34 40 39 40 39 38 38 37 37 38 37 36 36 31 21 5 47 54 46 40 42 40 39 35 24 12 11 14 21 11 18 14 22 22 36 15 21 11 20 11 16 14 23 49
30 33 34 38 36 33 34 33 32 35 33 33 35 31 21 16 12 50 57 50 44 39 27 29 31 24 10 18 12 14 27 15 27 52 66 45 22 17 14 6 20 33 37 42 50
26 31 36 37 34 32 33 31 33 40 44 45 42 32 23 19 11 48 52 48 44 41 32 25 36 29 8 7 20 15 23 41 46 52 41 11 19 12 10 14 3 6 45 50 54
29 35 38 34 31 35 36 36 40 47 46 45 39 35 22 53 27 42 46 47 41 40 40 39 26 32 20 24 31 13 26 43 45 47 50 49 34 21 23 25 13 15 35 46 50
30 35 33 30 35 37 38 36 39 47 41 37 32 46 48 41 38 39 42 43 43 42 34 32 24 33 26 29 16 42 41 32 28 34 30 22 29 29 11 33 10 22 35 45 45
31 32 31 35 35 33 32 33 35 39 35 27 24 21 49 34 36 35 43 48 41 33 31 31 30 16 27 23 31 41 20 17 17 15 10 18 19 23 46 47 37 35 39 46 46
30 31 32 33 32 31 25 31 29 27 50 20 22 31 15 49 37 47 49 49 37 33 33 30 23 34 12 20 20 12 10 6 7 11 15 12 27 8 47 49 50 48 48 54 51
26 28 28 28 27 26 17 29 40 19 19 43 14 8 15 42 45 54 53 40 42 38 36 28 18 15 17 4 8 8 10 11 15 17 20 28 10 20 46 40 53 66 59 62 61
20 23 25 23 23 23 20 3 12 56 7 9 42 8 34 45 37 55 46 25 39 50 29 34 11 7 12 12 6 6 8 12 11 17 28 32 33 20 43 31 22 33 55 59 67
15 18 21 22 22 25 28 2 5 5 51 32 18 9 25 43 33 53 60 30 45 39 19 25 13 9 14 11 22 14 10 12 15 22 20 10 13 14 30 39 28 36 39 40 31
13 15 19 22 17 24 31 18 16 8 6 20 19 23 20 33 26 53 57 31 20 11 30 16 8 14 18 19 19 20 20 14 17 14 16 18 30 17 16 25 40 39 53 53 51
11 14 17 22 16 26 38 27 10 6 2 10 21 19 32 23 16 35 50 24 13 17 14 2 13 24 21 23 26 15 17 27 26 31 10 15 17 11 14 22 37 58 51 64 64
10 12 15 19 8 23 25 23 7 3 9 15 17 17 28 20 4 18 37 17 14 13 16 8 19 19 19 22 16 17 15 24 29 24 9 14 13 6 4 15 16 41 64 62 70
12 11 13 14 11 15 19 16 3 4 9 10 11 14 22 13 16 4 24 12 4 6 7 13 16 19 20 11 17 13 22 23 23 21 20 13 7 13 16 16 27 39 59 66 63
14 11 9 11 9 18 20 13 2 12 6 11 11 16 15 10 15 12 14 15 17 7 3 17 32 8 9 17 19 21 15 28 20 6 4 14 13 8 8 13 11 18 21 29 51
12 10 8 11 12 16 19 10 10 12 7 13 5 8 8 8 12 11 11 14 6 12 10 13 13 0 5 12 13 10 12 8 11 7 10 10 15 19 39 34 31 30 33 32 33
10 9 9 9 11 12 15 9 11 7 10 6 5 3 5 10 5 12 10 7 9 8 4 4 16 7 8 5 12 17 9 5 9 12 19 17 10 11 20 48 17 38 42 50 50
14 11 8 8 8 8 7 9 14 13 8 1 8 11 11 6 3 13 6 5 2 5 7 7 10 11 27 13 2 11 4 9 5 15 5 10 16 19 21 16 26 34 47 50 43
8 4 10 10 6 2 8 8 7 4 9 2 6 6 5 8 7 10 4 8 2 6 7 7 15 12 11 13 16 11 7 8 3 4 9 11 12 14 22 21 24 31 42 53 55
14 8 8 10 11 5 6 12 7 11 8 9 10 4 9 5 9 4 8 11 6 10 14 6 9 13 11 4 17 15 7 7 4 9 11 14 10 14 18 6 18 23 46 59 61
16 2 8 19 7 4 4 10 5 6 9 3 4 7 11 12 7 8 13 15 15 9 8 13 7 11 22 35 27 27 26 16 5 15 11 15 31 39 37 19 25 39 52 55 58
13 8 12 23 8 3 3 8 5 6 9 8 10 12 11 9 3 14 10 14 17 11 8 5 5 11 20 13 10 8 4 9 21 18 34 20 32 7 26 41 57 51 54 59 61
12 3 7 16 7 12 11 7 6 12 7 9 7 2 3 8 11 9 9 10 25 21 23 14 10 16 19 23 6 32 38 31 11 17 28 45 53 62 56 44 53 40 48 54 59
20 11 10 8 16 14 17 16 8 6 11 12 7 14 12 6 5 12 13 13 22 33 30 15 15 14 30 36 34 45 52 44 39 45 33 67 41 63 51 47 61 68 70 74 70
23 15 14 8 12 16 13 11 18 7 16 10 11 13 16 13 19 12 10 5 13 5 9 4 14 7 30 35 38 52 53 45 49 52 50 58 64 59 77 75 62 61 62 58 70
57 21 9 16 12 9 11 16 20 27 23 19 32 6 16 39 47 53 49 39 34 9 2 6 3 9 14 15 33 26 27 14 12 19 19 24 44 40 38 33 48 48 33 35 35
Wind_Direction_500mb
74 70 61 57 52 46 40 34 35 28 24 20 18 21 25 23 359 358 24 1 346 340 335 326 299 274 221 240 230 236 185 227 231 237 260 285 272 184 184 202 67 104 161 197 179
65 60 56 52 46 38 35 29 31 27 21 13 8 6 13 13 17 28 7 356 347 339 342 354 343 343 299 259 222 201 188 217 219 245 265 278 277 209 180 211 132 135 153 158 173
60 58 52 52 43 37 29 28 26 27 20 10 10 12 29 20 71 8 356 0 353 348 342 351 342 315 253 262 225 222 233 229 241 242 258 276 293 290 185 203 202 193 189 177 178
64 57 49 42 32 26 24 24 23 26 20 16 16 33 43 36 58 356 348 358 358 351 342 341 353 350 292 255 278 267 238 229 252 253 268 292 304 264 257 228 182 265 231 193 184
54 49 42 30 25 24 22 22 23 23 26 33 35 45 55 53 21 355 355 359 356 355 2 359 9 358 0 314 326 285 282 273 259 261 270 280 269 260 266 252 306 244 211 202 200
55 47 39 22 19 15 24 29 29 41 40 50 63 55 49 65 4 357 0 356 352 349 356 359 340 329 304 315 296 316 310 298 299 296 296 293 274 254 255 259 210 216 215 211 214
48 43 30 20 15 10 25 36 38 55 42 63 63 63 46 41 7 16 10 9 358 351 346 342 331 330 328 307 312 310 303 315 288 291 276 318 271 240 248 256 263 206 220 215 221
39 31 22 16 7 7 28 42 39 64 54 78 91 63 69 14 28 22 13 8 13 15 354 339 340 303 237 295 314 310 303 329 336 270 252 239 245 284 241 248 262 265 219 213 225
29 23 16 10 5 3 15 68 53 48 61 57 76 55 41 15 25 19 8 4 2 25 6 6 342 293 305 279 349 309 265 278 296 263 265 233 246 222 254 253 245 250 253 225 221
19 12 4 2 6 9 6 180 53 48 99 29 36 84 10 350 24 8 10 16 21 27 11 355 5 14 10 356 271 290 333 317 321 313 338 281 267 258 264 258 261 274 261 254 227
6 359 354 356 7 14 16 256 62 43 47 65 50 73 345 11 31 9 9 15 26 23 15 348 45 8 330 319 314 290 266 282 286 289 306 299 337 326 331 328 338 326 315 303 299
353 349 349 355 6 22 22 70 73 81 55 45 52 27 20 12 9 12 11 25 16 17 12 12 36 334 322 334 334 326 309 297 275 272 327 295 296 278 285 291 294 292 296 291 290
331 338 344 353 5 18 27 46 85 82 138 22 24 6 15 358 15 2 11 7 2 11 6 175 270 345 4 341 331 325 349 345 329 320 243 265 271 236 254 258 280 283 276 277 277
309 322 335 348 359 8 19 24 77 98 75 313 358 10 358 352 30 356 9 22 356 349 341 314 334 351 349 327 328 320 357 348 333 346 297 30 289 279 253 298 280 275 281 272 270
307 312 326 358 0 6 3 5 72 93 44 311 337 342 2 56 312 334 360 351 304 284 64 265 299 315 321 283 343 273 333 321 301 296 318 326 281 267 236 248 249 253 251 269 265
296 294 303 330 1 360 351 350 47 42 284 328 340 358 4 355 346 307 347 349 296 327 256 254 277 248 232 307 279 277 320 302 280 233 306 251 248 278 228 231 277 275 282 275 263
289 294 292 326 343 348 343 335 35 104 338 300 299 350 1 316 325 23 330 346 32 22 332 318 324 326 27 325 342 35 357 325 350 358 233 5 327 257 290 294 300 293 307 33 42
275 281 287 316 332 341 343 44 74 231 229 277 243 348 42 2 316 337 329 11 26 66 337 18 334 357 357 302 267 307 184 222 279 305 305 299 258 263 304 297 16 36 38 29 27
246 248 268 286 299 338 346 53 198 203 185 277 354 53 320 356 354 1 327 213 127 115 143 346 269 315 314 294 13 308 351 229 246 262 265 238 274 291 285 30 6 15 10 360 4
232 227 273 256 248 309 72 229 184 160 137 131 155 145 222 267 24 32 343 247 231 126 132 258 296 263 292 318 281 189 264 313 334 296 258 244 256 248 305 354 9 356 346 344 341
184 230 200 185 174 168 162 223 235 207 169 170 190 202 211 234 159 267 240 288 203 172 161 181 208 284 18 239 287 305 321 329 336 260 292 287 253 234 254 32 341 338 330 335 333
196 255 199 168 120 81 178 190 179 211 209 229 169 187 195 185 214 235 224 213 192 183 200 217 214 282 264 278 268 255 275 271 176 284 282 295 268 259 269 298 332 316 325 331 335
207 195 188 183 142 233 337 315 261 215 223 177 212 206 193 207 241 206 224 248 218 186 192 236 285 321 331 348 354 78 267 314 307 281 264 274 270 7 300 303 297 309 312 305 308
199 147 198 207 210 149 134 227 275 217 255 219 209 223 156 241 220 256 240 251 222 211 222 238 201 200 241 250 246 288 280 276 210 265 279 250 276 284 278 286 301 300 295 293 294
211 230 192 186 224 181 157 154 145 251 220 233 257 198 176 216 238 227 247 273 257 243 235 185 242 227 252 268 271 271 274 271 255 254 249 274 267 267 282 290 289 292 288 287 284
188 180 184 190 165 139 191 211 172 181 159 249 226 213 190 204 199 215 214 163 240 300 166 207 269 269 277 269 264 275 273 267 262 262 254 260 270 270 275 279 278 279 281 277 279
210 197 172 169 157 134 215 196 194 165 218 220 216 185 211 234 245 262 273 261 250 249 210 240 159 351 273 336 316 291 265 231 234 233 237 251 252 276 275 272 276 280 297 310 293
Wind_Speed_850mb
39 38 39 40 41 39 40 39 39 41 42 41 37 32 28 25 10 21 37 46 47 45 41 30 19 11 10 17 27 12 4 11 15 14 26 48 12 13 17 9 2 6 15 14 51
35 34 40 39 40 39 38 38 37 37 38 37 36 36 31 21 5 47 54 46 40 42 40 39 35 24 12 11 14 21 11 18 14 22 22 36 15 21 11 20 11 16 14 23 49
30 33 34 38 36 33 34 33 32 35 33 33 35 31 21 16 12 50 57 50 44 39 27 29 31 24 10 18 12 14 27 15 27 52 66 45 22 17 14 6 20 33 37 42 50
26 31 36 37 34 32 33 31 33 40 44 45 42 32 23 19 11 48 52 48 44 41 32 25 36 29 8 7 20 15 23 41 46 52 41 11 19 12 10 14 3 6 45 50 54
29 35 38 34 31 35 36 36 40 47 46 45 39 35 22 53 27 42 46 47 41 40 40 39 26 32 20 24 31 13 26 43 45 47 50 49 34 21 23 25 13 15 35 46 50
30 35 33 30 35 37 38 36 39 47 41 37 32 46 48 41 38 39 42 43 43 42 34 32 24 33 26 29 16 42 41 32 28 34 30 22 29 29 11 33 10 22 35 45 45
31 32 31 35 35 33 32 33 35 39 35 27 24 21 49 34 36 35 43 48 41 33 31 31 30 16 27 23 31 41 20 17 17 15 10 18 19 23 46 47 37 35 39 46 46
30 31 32 33 32 31 25 31 29 27 50 20 22 31 15 49 37 47 49 49 37 33 33 30 23 34 12 20 20 12 10 6 7 11 15 12 27 8 47 49 50 48 48 54 51
26 28 28 28 27 26 17 29 40 19 19 43 14 8 15 42 45 54 53 40 42 38 36 28 18 15 17 4 8 8 10 11 15 17 20 28 10 20 46 40 53 66 59 62 61
20 23 25 23 23 23 20 3 12 56 7 9 42 8 34 45 37 55 46 25 39 50 29 34 11 7 12 12 6 6 8 12 11 17 28 32 33 20 43 31 22 33 55 59 67
15 18 21 22 22 25 28 2 5 5 51 32 18 9 25 43 33 53 60 30 45 39 19 25 13 9 14 11 22 14 10 12 15 22 20 10 13 14 30 39 28 36 39 40 31
13 15 19 22 17 24 31 18 16 8 6 20 19 23 20 33 26 53 57 31 20 11 30 16 8 14 18 19 19 20 20 14 17 14 16 18 30 17 16 25 40 39 53 53 51
11 14 17 22 16 26 38 27 10 6 2 10 21 19 32 23 16 35 50 24 13 17 14 2 13 24 21 23 26 15 17 27 26 31 10 15 17 11 14 22 37 58 51 64 64
10 12 15 19 8 23 25 23 7 3 9 15 17 17 28 20 4 18 37 17 14 13 16 8 19 19 19 22 16 17 15 24 29 24 9 14 13 6 4 15 16 41 64 62 70
12 11 13 14 11 15 19 16 3 4 9 10 11 14 22 13 16 4 24 12 4 6 7 13 16 19 20 11 17 13 22 23 23 21 20 13 7 13 16 16 27 39 59 66 63
14 11 9 11 9 18 20 13 2 12 6 11 11 16 15 10 15 12 14 15 17 7 3 17 32 8 9 17 19 21 15 28 20 6 4 14 13 8 8 13 11 18 21 29 51
12 10 8 11 12 16 19 10 10 12 7 13 5 8 8 8 12 11 11 14 6 12 10 13 13 0 5 12 13 10 12 8 11 7 10 10 15 19 39 34 31 30 33 32 33
10 9 9 9 11 12 15 9 11 7 10 6 5 3 5 10 5 12 10 7 9 8 4 4 16 7 8 5 12 17 9 5 9 12 19 17 10 11 20 48 17 38 42 50 50
14 11 8 8 8 8 7 9 14 13 8 1 8 11 11 6 3 13 6 5 2 5 7 7 10 11 27 13 2 11 4 9 5 15 5 10 16 19 21 16 26 34 47 50 43
8 4 10 10 6 2 8 8 7 4 9 2 6 6 5 8 7 10 4 8 2 6 7 7 15 12 11 13 16 11 7 8 3 4 9 11 12 14 22 21 24 31 42 53 55
14 8 8 10 11 5 6 12 7 11 8 9 10 4 9 5 9 4 8 11 6 10 14 6 9 13 11 4 17 15 7 7 4 9 11 14 10 14 18 6 18 23 46 59 61
16 2 8 19 7 4 4 10 5 6 9 3 4 7 11 12 7 8 13 15 15 9 8 13 7 11 22 35 27 27 26 16 5 15 11 15 31 39 37 19 25 39 52 55 58
13 8 12 23 8 3 3 8 5 6 9 8 10 12 11 9 3 14 10 14 17 11 8 5 5 11 20 13 10 8 4 9 21 18 34 20 32 7 26 41 57 51 54 59 61
12 3 7 16 7 12 11 7 6 12 7 9 7 2 3 8 11 9 9 10 25 21 23 14 10 16 19 23 6 32 38 31 11 17 28 45 53 62 56 44 53 40 48 54 59
20 11 10 8 16 14 17 16 8 6 11 12 7 14 12 6 5 12 13 13 22 33 30 15 15 14 30 36 34 45 52 44 39 45 33 67 41 63 51 47 61 68 70 74 70
23 15 14 8 12 16 13 11 18 7 16 10 11 13 16 13 19 12 10 5 13 5 9 4 14 7 30 35 38 52 53 45 49 52 50 58 64 59 77 75 62 61 62 58 70
57 21 9 16 12 9 11 16 20 27 23 19 32 6 16 39 47 53 49 39 34 9 2 6 3 9 14 15 33 26 27 14 12 19 19 24 44 40 38 33 48 48 33 35 35
Wind_Direction_850mb
74 70 61 57 52 46 40 34 35 28 24 20 18 21 25 23 359 358 24 1 346 340 335 326 299 274 221 240 230 236 185 227 231 237 260 285 272 184 184 202 67 104 161 197 179
65 60 56 52 46 38 35 29 31 27 21 13 8 6 13 13 17 28 7 356 347 339 342 354 343 343 299 259 222 201 188 217 219 245 265 278 277 209 180 211 132 135 153 158 173
60 58 52 52 43 37 29 28 26 27 20 10 10 12 29 20 71 8 356 0 353 348 342 351 342 315 253 262 225 222 233 229 241 242 258 276 293 290 185 203 202 193 189 177 178
64 57 49 42 32 26 24 24 23 26 20 16 16 33 43 36 58 356 348 358 358 351 342 341 353 350 292 255 278 267 238 229 252 253 268 292 304 264 257 228 182 265 231 193 184
54 49 42 30 25 24 22 22 23 23 26 33 35 45 55 53 21 355 355 359 356 355 2 359 9 358 0 314 326 285 282 273 259 261 270 280 269 260 266 252 306 244 211 202 200
55 47 39 22 19 15 24 29 29 41 40 50 63 55 49 65 4 357 0 356 352 349 356 359 340 329 304 315 296 316 310 298 299 296 296 293 274 254 255 259 210 216 215 211 214
48 43 30 20 15 10 25 36 38 55 42 63 63 63 46 41 7 16 10 9 358 351 346 342 331 330 328 307 312 310 303 315 288 291 276 318 271 240 248 256 263 206 220 215 221
39 31 22 16 7 7 28 42 39 64 54 78 91 63 69 14 28 22 13 8 13 15 354 339 340 303 237 295 314 310 303 329 336 270 252 239 245 284 241 248 262 265 219 213 225
29 23 16 10 5 3 15 68 53 48 61 57 76 55 41 15 25 19 8 4 2 25 6 6 342 293 305 279 349 309 265 278 296 263 265 233 246 222 254 253 245 250 253 225 221
19 12 4 2 6 9 6 180 53 48 99 29 36 84 10 350 24 8 10 16 21 27 11 355 5 14 10 356 271 290 333 317 321 313 338 281 267 258 264 258 261 274 261 254 227
6 359 354 356 7 14 16 256 62 43 47 65 50 73 345 11 31 9 9 15 26 23 15 348 45 8 330 319 314 290 266 282 286 289 306 299 337 326 331 328 338 326 315 303 299
353 349 349 355 6 22 22 70 73 81 55 45 52 27 20 12 9 12 11 25 16 17 12 12 36 334 322 334 334 326 309 297 275 272 327 295 296 278 285 291 294 292 296 291 290
331 338 344 353 5 18 27 46 85 82 138 22 24 6 15 358 15 2 11 7 2 11 6 175 270 345 4 341 331 325 349 345 329 320 243 265 271 236 254 258 280 283 276 277 277
309 322 335 348 359 8 19 24 77 98 75 313 358 10 358 352 30 356 9 22 356 349 341 314 334 351 349 327 328 320 357 348 333 346 297 30 289 279 253 298 280 275 281 272 270
307 312 326 358 0 6 3 5 72 93 44 311 337 342 2 56 312 334 360 351 304 284 64 265 299 315 321 283 343 273 333 321 301 296 318 326 281 267 236 248 249 253 251 269 265
296 294 303 330 1 360 351 350 47 42 284 328 340 358 4 355 346 307 347 349 296 327 256 254 277 248 232 307 279 277 320 302 280 233 306 251 248 278 228 231 277 275 282 275 263
289 294 292 326 343 348 343 335 35 104 338 300 299 350 1 316 325 23 330 346 32 22 332 318 324 326 27 325 342 35 357 325 350 358 233 5 327 257 290 294 300 293 307 33 42
275 281 287 316 332 341 343 44 74 231 229 277 243 348 42 2 316 337 329 11 26 66 337 18 334 357 357 302 267 307 184 222 279 305 305 299 258 263 304 297 16 36 38 29 27
246 248 268 286 299 338 346 53 198 203 185 277 354 53 320 356 354 1 327 213 127 115 143 346 269 315 314 294 13 308 351 229 246 262 265 238 274 291 285 30 6 15 10 360 4
232 227 273 256 248 309 72 229 184 160 137 131 155 145 222 267 24 32 343 247 231 126 132 258 296 263 292 318 281 189 264 313 334 296 258 244 256 248 305 354 9 356 346 344 341
184 230 200 185 174 168 162 223 235 207 169 170 190 202 211 234 159 267 240 288 203 172 161 181 208 284 18 239 287 305 321 329 336 260 292 287 253 234 254 32 341 338 330 335 333
196 255 199 168 120 81 178 190 179 211 209 229 169 187 195 185 214 235 224 213 192 183 200 217 214 282 264 278 268 255 275 271 176 284 282 295 268 259 269 298 332 316 325 331 335
207 195 188 183 142 233 337 315 261 215 223 177 212 206 193 207 241 206 224 248 218 186 192 236 285 321 331 348 354 78 267 314 307 281 264 274 270 7 300 303 297 309 312 305 308
199 147 198 207 210 149 134 227 275 217 255 219 209 223 156 241 220 256 240 251 222 211 222 238 201 200 241 250 246 288 280 276 210 265 279 250 276 284 278 286 301 300 295 293 294
211 230 192 186 224 181 157 154 145 251 220 233 257 198 176 216 238 227 247 273 257 243 235 185 242 227 252 268 271 271 274 271 255 254 249 274 267 267 282 290 289 292 288 287 284
188 180 184 190 165 139 191 211 172 181 159 249 226 213 190 204 199 215 214 163 240 300 166 207 269 269 277 269 264 275 273 267 262 262 254 260 270 270 275 279 278 279 281 277 279
210 197 172 169 157 134 215 196 194 165 218 220 216 185 211 234 245 262 273 261 250 249 210 240 159 351 273 336 316 291 265 231 234 233 237 251 252 276 275 272 276 280 297 310 293